COSMO-SKYMED 1

Last updated on Wed Jul 02 2025 00:02:14 GMT+0000 (Coordinated Universal Time)

1 31598U 07023A 25182.53467471 .00000828 00000+0 82793-4 0 9993 2 31598 97.8880 7.0249 0002126 94.8319 265.3144 14.94155273977363
UTC large
Height (km)
Speed (km/s)
/
Latitude / Longitude
Inclination (degrees)
Orbital Period (minutes)
Azimuth
Elevation
Range (km)
Doppler Factor

Next 0 passes for location: London (51.5072 / 0.1276)

Sorry there are no passes over London.